Location: Catstown
(52.4386°N, 7.2633°W)
Time: 01:42:24
(UTC+00:00)

Cosmos 1733 - Pass Details

Date: 18 September 2020
Orbit: 504 x 522 km, 82.5° (Epoch: 30 October)

Event Time Altitude Azimuth Distance (km) Brightness Sun altitude
Exits shadow 20:52:11 40° 53° (NE) 780 3.9 -20.5°
Drops below altitude 10° 20:55:01 10° 20° (NNE) 1,761 6.0 -20.8°
Sets 20:57:12 0° 15° (NNE) 2,651 7.0 -21.1°
